Jackpot

Texas Poker Multi Jackpot System

Kini Telah hadir Jackpot SUPER ROYAL FLUSH

Kini Telah hadir Jackpot 2000 (khusus table VIP keatas).

Ikutilah global jackpot yang tersedia di system kami, dengan system jackpot terbaru dan pertama di indonesia, anda dapat membeli jackpot dengan harga 100 rupiah saja dan menangkan hadiahnya hingga puluhan juta rupiah.

Jackpot bukanlah suatu keharusan untuk dibeli, namun kami memberikan suatu fitur tambahan untuk member tercinta dari www.pokerhokibet88.net.

Terdapat tiga pilihan harga jackpot yang bisa anda beli yaitu :100,500,1000 dan 2000(khusus table VIP Keatas) rupiah.

Hadiah dari Multi jackpot system www.pokerhokibet88.net

  1. full house x 10 harga jackpot yang anda beli.
      (contoh:anda membeli 1000 maka:1000 X10 = 10.000)
  2. four of kind x 250 harga jackpot yang anda beli
      (contoh:anda membeli 1000 maka:1000 X250 = 250.000)
  3. Straight flush x 1200
      (contoh:anda membeli 1000 maka:1000 X1200 = 1.200.000)
  4. Royal flush x 10000 harga jackpot yang anda beli
      (contoh:anda membeli 1000 maka:1000 X10000 = 10.000.000)
  5. SUPER ROYAL FLUSH x 30000 harga jackpot yang anda beli
      (contoh:anda membeli 1000 maka:1000 X30000 = 30.000.000)

Kondisi kartu

  1. full house adalah kondisi kartu dimana kartu anda dan kartu tengah dengan total 7 kartu bisa mendapatkan nilai 5 kartu dengan kombinasi 1 tris(three of kind) dan 1 pair, contoh 3 kartu 10 dan 2 kartu 5
  2. Four of kind adalah kondisi kartu dimana kartu anda dan kartu tengah dengan total 7 kartu bisa mendapatkan nilai 5 kartu dengan kombinasi 4 kartu yang sama jumlah dan 1 kartu apapun juga contoh anda mendapatkan 4 buah kartu angka 3 dan 1 kartu apapun.
  3. Staright flush adalah kondisi kartu dimana kartu anda dan kartu tengah dengan total 7 kartu bisa mendapatkan nilai 5 kartu dengan kombinasi seri / staright dengan kembang yang sama contoh : urutan kartu dari angka 5, 6, 7, 8 , 9 10 dengan kembang yg sama misalnya as hati
  4. Royal flush adalah kondisi kartu dimana kartu anda dan kartu tengah dengan total 7 kartu bisa mendapatkan nilai 5 kartu dengan kombinasi seri / staright dengan kembang yang sama tetapi kartu tersebut haruslah dimulai dari 10. contoh 10, Queen, Jack, King dan aces dengan kembang yang sama
  5. Super Royal flush adalah kondisi kartu dimana Kedua kartu anda digabung dengan 3 kartu pertama meja haruslah royal flush. contoh kartu anda 10,Queen kembang sama dan 3 kartu pertama meja adalah Jack, King dan aces dengan kembang yang sama

Demikian adalah penjelasan dari Multi Jackpot www.pokerhokibet88.net terima kasih dan selamat bermain salam hoki dari kami

Texas Poker Jackpot Winner

TOP SUPER ROYAL FLUSH
No.TanggalNamaPriceWin
119/07 02:35TOOTH88Super Royal flush15,000,000
219/07 00:03BB90DFCASuper Royal flush6,000,000
318/07 23:58MONDY888Super Royal flush15,000,000
418/07 22:44ANDRI2017Super Royal flush1,500,000
518/07 21:08BAGASASuper Royal flush30,000,000
TOP ROYAL FLUSH
No.TanggalNamaPriceWin
119/07 18:05IYOZE81Royal flush1,000,000
219/07 18:04EXISTENCYRoyal flush1,000,000
319/07 17:46XXSARANGXXRoyal flush1,000,000
419/07 17:31SONYHADI64Royal flush500,000
519/07 17:29CILIS83Royal flush2,000,000
TOP STRAIGHT FLUSH
No.TanggalNamaPriceWin
119/07 18:06HERRY113Straight Flush600,000
219/07 18:01BAH_KIDI99Straight Flush600,000
319/07 18:00YK4OPTT11GStraight Flush600,000
419/07 17:59ASA_69Straight Flush240,000
519/07 17:59BAKATANStraight Flush1,200,000
LATEST JACKPOT
No.TanggalNamaPriceWin
119/07 18:08311285Full House2,000
219/07 18:08BAONG1JTFull House2,000
319/07 18:08ROHID66Full House2,000
419/07 18:08BULURAH12Full House2,000
519/07 18:08FIKARAJAFull House2,000
619/07 18:08IMV3RAZE67Full House2,000
719/07 18:08AYLIYA69Full House10,000
819/07 18:08E4631E77Full House2,000
919/07 18:08ATRIBUTTTFull House2,000
1019/07 18:08COLCOYFull House5,000
1119/07 18:08ESA_02Full House5,000
1219/07 18:08BAJINGANHHFull House5,000
1319/07 18:08IWIN_WINIFull House2,000
1419/07 18:08SLK13Full House10,000
1519/07 18:08MONEY20MFull House1,000
1619/07 18:08J3OPUMXESZFull House2,000
1719/07 18:08Q1Y41N1Full House5,000
1819/07 18:08MANG4LAPFull House2,000
1919/07 18:08TONGKOSFull House1,000
2019/07 18:08DENSUS000Full House2,000
2119/07 18:08ANDROLFull House2,000
2219/07 18:08OLY378Full House5,000
2319/07 18:08A24C6F1FFull House10,000
2419/07 18:08SOFFEL10Full House5,000
2519/07 18:08ADIN1203Full House2,000
2619/07 18:08ROJAN112Full House1,000
2719/07 18:08AYABOSFull House5,000
2819/07 18:08SALKIMXXFull House2,000
2919/07 18:08POMP4X99Full House1,000
3019/07 18:07I_WINNER86Full House2,000
3119/07 18:07JOKOWII10Full House5,000
3219/07 18:07JINNALLEFull House2,000
3319/07 18:07LIBAS_BOSFull House1,000
3419/07 18:07SURYATEH99Full House5,000
3519/07 18:07STEPUP7Full House2,000
3619/07 18:07MYHOPEFull House1,000
3719/07 18:07PIK24Full House10,000
3819/07 18:07C6D7ADCDFull House1,000
3919/07 18:07S5BR6Z9QRBFull House5,000
4019/07 18:07AALAASSKKFull House5,000
4119/07 18:07ORESAMAFull House10,000
4219/07 18:07DWBTWA36Full House1,000
4319/07 18:07BUDJEL19Full House5,000
4419/07 18:07DEWAWADULFull House5,000
4519/07 18:07EVENTPOINTFull House2,000
4619/07 18:07TEMPIK01Full House2,000
4719/07 18:07KHOOLISFull House2,000
4819/07 18:07FUSPITAFull House2,000
4919/07 18:07CIWIINIFull House2,000
5019/07 18:07YAKUB07Full House1,000

Domino Multi Jackpot System

Ikutilah global jackpot yang tersedia di system kami, dengan system jackpot terbaru dan pertama di indonesia, anda dapat membeli jackpot dengan harga 100 rupiah saja dan menangkan hadiahnya hingga puluhan juta rupiah.

Jackpot bukanlah suatu keharusan untuk dibeli, namun kami memberikan suatu fitur tambahan untuk member tercinta dari www.pokerhokibet88.net.

Terdapat tiga pilihan harga jackpot yang bisa anda beli yaitu :100,500 dan 1000 rupiah.

Hadiah dari Multi jackpot system www.pokerhokibet88.net

  1. Murni Kecil x 50 harga jackpot yang anda beli.
      (contoh:anda membeli 1000 maka:1000 X 50 = 50.000)
  2. Murni Besar x 50 harga jackpot yang anda beli
      (contoh:anda membeli 1000 maka:1000 X 50 = 50.000)
  3. BALAK x 100 harga jackpot yang anda beli
      (contoh:anda membeli 1000 maka:1000 X 100 = 100.000)
  4. ENAM DEWA x 6666 harga jackpot yang anda beli
      (contoh:anda membeli 1000 maka:1000 X 6666 = 6.666.000)

Demikian adalah penjelasan dari Multi Jackpot www.pokerhokibet88.net terima kasih dan selamat bermain salam hoki dari kami

Domino Jackpot Winner

TOP ENAM DEWA
No.TanggalNamaPriceWin
119/07 18:03PATIENT88murni enam6,666,000
219/07 17:51PRIYA20murni enam6,666,000
319/07 15:46MENYUNSUROmurni enam3,333,000
419/07 14:58BBX25murni enam6,666,000
519/07 14:49BOPENGGGmurni enam3,333,000
TOP BALAK
No.TanggalNamaPriceWin
119/07 18:07AD1NDH4balak50,000
219/07 18:06OWEKACRUTbalak50,000
319/07 18:02MRBLUE12balak100,000
419/07 18:01RINA_99balak100,000
519/07 18:00NAKKKKAL0balak50,000
LATEST JACKPOT
No.TanggalNamaPriceWin
119/07 18:08ABOE0610murni kecil50,000
219/07 18:08OOP174murni besar50,000
319/07 18:07AD1NDH4balak50,000
419/07 18:07ROLLERmurni kecil5,000
519/07 18:07JPRP666murni kecil5,000
619/07 18:06BGJH0N99murni besar25,000
719/07 18:06KIT999murni besar25,000
819/07 18:06OWEKACRUTbalak50,000
919/07 18:06MDRWIZPRAmurni besar50,000
1019/07 18:06TEKNO_IDmurni besar50,000
1119/07 18:05BARRE55murni kecil50,000
1219/07 18:05PEYANG18murni kecil50,000
1319/07 18:05C45SOPIJ8Lmurni kecil25,000
1419/07 18:05CHAKY6688murni besar25,000
1519/07 18:04C66O99135murni kecil50,000
1619/07 18:04MAY24murni kecil50,000
1719/07 18:04DENADA6666murni besar50,000
1819/07 18:04MABUKJUDImurni kecil50,000
1919/07 18:04NETTO99Gmurni kecil50,000
2019/07 18:03HAMDAN_22lucky9950,000
2119/07 18:03VU6DWFLGNZmurni besar50,000
2219/07 18:03UASSUKABEHmurni kecil50,000
2319/07 18:03PATIENT88murni enam6,666,000
2419/07 18:02T118CAHEDANmurni kecil50,000
2519/07 18:02PENGEK46murni kecil5,000
2619/07 18:02CB77HKMIL99murni kecil50,000
2719/07 18:02ROMI002murni besar25,000
2819/07 18:02SABLENK13murni besar5,000
2919/07 18:02KOMALA01murni kecil25,000
3019/07 18:02MRBLUE12balak100,000
3119/07 18:01RINA_99balak100,000
3219/07 18:01BARY07murni kecil25,000
3319/07 18:01NONGNONG10murni besar25,000
3419/07 18:00NAKKKKAL0balak50,000
3519/07 18:00UPIK13murni kecil50,000
3619/07 18:00CHATING53murni kecil25,000
3719/07 18:00QIRA14murni kecil50,000
3819/07 18:00DAV9999murni besar50,000
3919/07 18:00ZEAN007murni kecil5,000
4019/07 18:00AJIEBOSmurni besar50,000
4119/07 17:59NURIYAH01murni besar50,000
4219/07 17:59AAAABSEC54murni kecil25,000
4319/07 17:59ANAKGAUL21balak10,000
4419/07 17:59MRMARSHALmurni besar25,000
4519/07 17:58GOR6Amurni kecil50,000
4619/07 17:58MRMARSHALmurni kecil25,000
4719/07 17:58AINGACILmurni kecil50,000
4819/07 17:58PRPENDOSmurni kecil25,000
4919/07 17:57CINEPET69murni kecil25,000
5019/07 17:57B0C1LLmurni besar50,000

Ceme Multi Jackpot System

Jackpot dilihat dari gabungan kartu pemain dengan kartu bandar. Bandar harus membeli jackpot sebanyak jumlah player yang sedang duduk. Sebagai contoh bila terdapat 3 pemain duduk bermain, dan bandar memutuskan untuk membeli jackpot Rp 1.000, maka pada periode tersebut bandar akan membeli jackpot sebanyak 3xRp1.000 = Rp3.000.

Jackpot bukanlah suatu keharusan untuk dibeli, namun kami memberikan suatu fitur tambahan untuk member tercinta dari www.pokerhokibet88.net.

Terdapat tiga pilihan harga jackpot yang bisa anda beli yaitu :100,500 dan 1000 rupiah.

Hadiah dari Multi jackpot system www.pokerhokibet88.net

  1. Murni Kecil x 50 harga jackpot yang anda beli.
      (contoh:anda membeli 1000 maka:1000 X 50 = 50.000)
  2. Murni Besar x 50 harga jackpot yang anda beli
      (contoh:anda membeli 1000 maka:1000 X 50 = 50.000)
  3. BALAK x 200 harga jackpot yang anda beli
      (contoh:anda membeli 1000 maka:1000 X 200 = 200.000)
  4. ENAM DEWA x 6666 harga jackpot yang anda beli
      (contoh:anda membeli 1000 maka:1000 X 6666 = 6.666.000)

Demikian adalah penjelasan dari Multi Jackpot www.pokerhokibet88.net terima kasih dan selamat bermain salam hoki dari kami

Ceme Jackpot Winner

TOP ENAM DEWA
No.TanggalNamaPriceWin
119/07 17:59DADANG999murni enam6,666,000
219/07 17:59L10NG88murni enam3,333,000
319/07 17:08AURAH007murni enam6,666,000
419/07 16:55VANSIDmurni enam3,333,000
519/07 16:47ZAAKY66murni enam6,666,000
TOP BALAK
No.TanggalNamaPriceWin
119/07 18:08POERNA765balak100,000
219/07 18:08KAMIKAZE66balak20,000
319/07 18:08BUJURTRUSbalak20,000
419/07 18:07OYOT66balak200,000
519/07 18:07ABINARTHAbalak100,000
LATEST JACKPOT
No.TanggalNamaPriceWin
119/07 18:08MH52murni kecil5,000
219/07 18:08DENY_89murni besar50,000
319/07 18:08MARLONK39murni besar5,000
419/07 18:08DENY_89murni besar50,000
519/07 18:08KEMPLO03murni besar50,000
619/07 18:08POERNA765balak100,000
719/07 18:08KAMIKAZE66balak20,000
819/07 18:08DDSUGALImurni kecil50,000
919/07 18:08BUJURTRUSbalak20,000
1019/07 18:08BLUNDO20murni besar50,000
1119/07 18:08HARV001murni besar50,000
1219/07 18:08LI1WC2KEXBmurni kecil5,000
1319/07 18:08RAVE1993murni besar50,000
1419/07 18:08IKNOVIYAmurni besar25,000
1519/07 18:07RRHOKI99murni besar5,000
1619/07 18:07RIZAAL212murni besar25,000
1719/07 18:07BOSGULLmurni besar50,000
1819/07 18:07OYOT66murni kecil50,000
1919/07 18:07AWIN8491murni kecil25,000
2019/07 18:07OYOT66balak200,000
2119/07 18:07ABINARTHAbalak100,000
2219/07 18:07OYOT66murni kecil50,000
2319/07 18:07MENTALPROmurni kecil50,000
2419/07 18:07ZHIKOPUTRAmurni kecil50,000
2519/07 18:07SARI1988murni kecil50,000
2619/07 18:07JET2727murni kecil50,000
2719/07 18:07AFMEmurni kecil50,000
2819/07 18:07JHO22murni kecil50,000
2919/07 18:07BMBYPAZmurni kecil25,000
3019/07 18:07ALIVE20murni kecil50,000
3119/07 18:07R4M11murni kecil50,000
3219/07 18:07XAVIER94balak100,000
3319/07 18:07ENYON32balak200,000
3419/07 18:07DENY_89murni kecil50,000
3519/07 18:07DKNDAYS99murni kecil50,000
3619/07 18:07R1IN4murni besar50,000
3719/07 18:06TERUS_WD99balak200,000
3819/07 18:06MAINLIDIKbalak100,000
3919/07 18:06ENAMDEWA72murni besar50,000
4019/07 18:06NANGHER88murni besar5,000
4119/07 18:06DDASMARAmurni besar25,000
4219/07 18:06HISYAM05murni besar50,000
4319/07 18:06B7628FB1murni kecil25,000
4419/07 18:06SIRENmurni besar50,000
4519/07 18:06VK9219balak100,000
4619/07 18:06ENAMDEWA72murni besar50,000
4719/07 18:06POROT54murni besar50,000
4819/07 18:06C84AFATAR700murni kecil5,000
4919/07 18:06HISYAM05murni kecil50,000
5019/07 18:06RATU889murni kecil25,000